Simultaneous Nadir Overpasses (SNOs) Predictions

Prediction of SNOs between GOES-17 and METOP-B Satellite Orbit:

Table of predicted SNOs for the next 14.0 days since TLE Epoch: 2/3/2024
Index Date Time (GOES-17) GOES-17 Lat,Lon METOP-B Lat,Lon Distance(km) Time Diff (sec)
1 02/04/2024 16:24:29 0.01,-104.69 -0.07,-104.35 38.94 80
2 02/06/2024 04:43:32 -0.01,-104.68 -0.95,-108.97 488.16 80
3 02/07/2024 04:20:14 -0.01,-104.68 0.12,-103.98 79.58 80
4 02/08/2024 16:39:08 0.01,-104.69 0.89,-108.56 441.75 80
5 02/09/2024 16:21:11 0.02,-104.69 -0.24,-103.58 126.30 80
6 02/11/2024 04:40:13 -0.02,-104.68 -0.83,-108.19 400.34 80
7 02/12/2024 04:16:56 -0.03,-104.68 0.31,-103.21 167.73 80
8 02/13/2024 16:35:50 0.02,-104.69 0.69,-107.79 353.32 80
9 02/14/2024 16:17:51 0.03,-104.69 -0.38,-102.80 215.00 80
10 02/16/2024 04:36:55 -0.02,-104.69 -0.61,-107.43 311.24 80
